1498629600.19,18838,19.0,73706.5,7.61,-1.47,-3.67,0,*77
1498629601.45,18839,19.0,73712.8,7.57,-1.39,-3.47,0,*78
1498629602.69,18840,19.0,73712.3,7.61,-1.17,-3.63,0,*79
1498629603.94,18841,19.0,73710.0,7.61,-0.93,-3.51,0,*44
1498629605.15,18842,19.0,73720.3,7.59,-1.13,-4.09,0,*7F
1498629606.38,18843,19.0,73728.5,7.61,-0.77,-3.67,0,*49
1498629607.59,18844,19.0,73720.3,7.61,-0.65,-3.19,0,*44
1498629608.8,18845,19.0,73718.0,7.59,-1.01,-3.31,0,*77
1498629610.04,18846,19.0,73716.8,7.59,-1.13,-3.43,0,*72
1498629611.24,18847,19.0,73722.0,7.61,-0.61,-2.79,0,*44
1498629612.42,18848,19.0,73724.8,7.59,-0.37,-1.55,0,*4E
1498629613.64,18849,19.0,73728.0,7.61,0.21,-0.07,0,*68
1498629614.88,18850,19.0,73706.0,7.61,0.59,0.67,0,*74
1498629616.08,18851,19.0,73718.5,7.59,0.33,-0.15,0,*5A
1498629617.26,18852,19.0,73714.0,7.59,-0.15,-0.19,0,*7C
1498629618.42,18853,19.0,73708.8,7.59,0.43,-0.07,0,*6C
1498629619.65,18854,19.0,73704.8,7.61,0.71,-0.19,0,*5E
1498629620.9,18855,19.0,73702.3,7.61,1.51,0.47,0,*4A
1498629622.15,18856,19.0,73712.5,7.61,1.67,0.47,0,*4C
1498629623.38,18857,19.0,73718.5,7.61,0.83,-0.49,0,*55
1498629624.6,18858,19.0,73720.5,7.59,0.79,-0.93,0,*53
1498629625.85,18859,19.0,73722.8,7.61,1.55,0.95,0,*4D
1498629627.07,18860,19.0,73718.3,7.59,1.67,0.47,0,*42
1498629628.28,18861,19.0,73710.8,7.61,0.97,-0.69,0,*57
1498629629.47,18862,19.0,73718.8,7.63,1.75,0.25,0,*4E
1498629630.71,18863,19.0,73724.0,7.63,2.17,1.21,0,*7D
1498629631.91,18864,19.0,73720.3,7.63,1.43,-0.15,0,*63
1498629633.09,18865,19.0,73718.3,7.63,0.97,-0.77,0,*5E
1498629634.29,18866,19.0,73720.0,7.63,1.25,-0.03,0,*56
1498629635.49,18867,19.0,73712.5,7.63,1.83,0.59,0,*49
1498629636.69,18868,19.0,73712.0,7.63,1.75,1.09,0,*7B
1498629637.92,18869,19.0,73718.5,7.63,2.77,2.17,0,*77
1498629639.17,18870,19.0,73714.3,7.61,2.13,2.05,0,*7C
1498629640.4,18871,19.0,73746.5,7.61,1.79,1.71,0,*72
1498629641.65,18872,19.0,73738.3,7.61,1.63,1.29,0,*77
1498629642.89,18873,19.0,73708.5,7.61,-0.65,-1.05,0,*4F
1498629644.11,18874,19.0,73712.8,7.59,-1.47,-2.31,0,*76
1498629645.34,18875,19.0,73696.8,7.61,-2.03,-3.15,0,*78
1498629646.56,18876,19.0,73692.0,7.59,-1.13,-2.39,0,*7D
1498629647.77,18877,19.0,73708.8,7.59,-0.89,-2.31,0,*46
1498629649.01,18878,19.06,73732.3,7.61,-1.05,-3.19,0,*7C
1498629650.25,18879,19.0,73712.8,7.59,-1.91,-4.69,0,*7B
1498629651.47,18880,19.0,73716.0,7.59,-2.15,-4.81,0,*74
1498629652.69,18881,19.06,73718.3,7.59,-2.11,-4.57,0,*7A
1498629653.91,18882,19.0,73706.0,7.59,-1.39,-4.41,0,*77
1498629655.12,18883,19.0,73716.0,7.59,-0.61,-2.67,0,*48
1498629656.36,18884,19.0,73724.8,7.61,-0.69,-2.55,0,*4D
1498629657.57,18885,19.0,73726.0,7.61,-0.77,-2.43,0,*44
1498629658.78,18886,19.0,73720.8,7.59,-1.01,-2.79,0,*75
1498629659.99,18887,19.0,73728.8,7.59,-1.39,-3.19,0,*78
1498629661.2,18888,19.0,73724.0,7.59,-1.67,-3.63,0,*71
1498629662.43,18889,19.0,73734.3,7.63,-1.87,-3.47,0,*71
1498629663.67,18890,19.0,73730.0,7.61,-1.47,-3.87,0,*7B
1498629664.9,18891,19.0,73720.5,7.61,-1.67,-3.67,0,*76
1498629666.11,18892,19.0,73726.8,7.61,-1.51,-3.39,0,*7B
1498629667.35,18893,19.0,73736.3,7.61,-1.47,-3.03,0,*74
1498629668.58,18894,19.0,73736.3,7.61,-0.93,-1.75,0,*48
1498629669.77,18895,19.0,73742.0,7.63,-0.77,-1.51,0,*47
1498629670.97,18896,19.0,73744.8,7.63,-1.09,-1.25,0,*7F
1498629672.2,18897,19.0,73726.0,7.63,-0.89,-1.13,0,*42
1498629673.43,18898,19.0,73716.8,7.65,0.13,0.17,0,*7D
1498629674.66,18899,19.0,73724.0,7.63,2.09,2.05,0,*72
1498629675.85,18900,19.0,73720.0,7.63,3.53,3.59,0,*75
1498629677.06,18901,19.0,73722.5,7.63,4.93,5.23,0,*74
1498629678.26,18902,19.0,73718.0,7.63,5.85,5.95,0,*7C
1498629679.44,18903,19.0,73718.8,7.63,5.59,5.59,0,*7C
1498629680.61,18904,19.0,73710.0,7.63,5.37,5.49,0,*72
1498629681.84,18905,19.0,73712.3,7.63,4.93,4.93,0,*7A
1498629683.11,18906,19.0,73716.0,7.61,4.59,4.75,0,*75
1498629684.34,18907,19.0,73724.5,7.61,4.19,4.59,0,*7E
1498629685.56,18908,19.0,73710.0,7.61,2.89,3.55,0,*75
1498629686.81,18909,19.0,73698.0,7.61,2.85,3.71,0,*7E
1498629688.02,18910,19.0,73686.3,7.61,4.19,4.85,0,*79
1498629689.22,18911,19.0,73690.0,7.63,4.79,5.33,0,*70
1498629690.46,18912,19.0,73690.5,7.61,4.79,5.07,0,*76
1498629691.66,18913,19.0,73708.5,7.61,4.53,4.15,0,*7D
1498629692.89,18914,19.0,73704.5,7.59,3.37,2.51,0,*72
1498629694.09,18915,19.0,73702.5,7.59,3.97,3.55,0,*7C
1498629695.32,18916,19.0,73690.0,7.61,4.67,4.41,0,*7E
1498629696.53,18917,19.0,73678.5,7.61,5.29,5.23,0,*71
1498629697.71,18918,19.0,73684.0,7.59,5.59,5.59,0,*7F
1498629698.94,18919,19.0,73680.5,7.61,5.59,5.55,0,*79
1498629700.14,18920,19.0,73664.8,7.61,5.71,5.71,0,*7F
1498629701.36,18921,19.0,73666.5,7.59,5.77,5.77,0,*75
1498629702.56,18922,19.0,73672.8,7.59,5.77,5.67,0,*77
1498629703.79,18923,19.0,73674.5,7.59,5.89,5.93,0,*7C
1498629705.01,18924,19.0,73682.3,7.59,6.17,6.13,0,*74
1498629706.22,18925,19.0,73684.0,7.59,6.03,6.13,0,*70
1498629707.45,18926,19.0,73680.8,7.61,5.93,6.11,0,*70
1498629708.69,18927,19.0,73680.8,7.61,6.03,6.17,0,*7D
1498629709.92,18928,19.0,73698.8,7.59,5.81,5.89,0,*74
1498629711.12,18929,19.0,73724.8,7.59,5.23,4.97,0,*73
1498629712.36,18930,19.0,73726.3,7.61,4.27,3.71,0,*7A
1498629713.61,18931,19.0,73720.3,7.61,3.33,2.89,0,*7F
1498629714.83,18932,19.0,73698.0,7.59,0.87,0.59,0,*74
1498629716.07,18933,19.0,73618.3,7.57,-0.57,-1.43,0,*4C
1498629717.26,18934,19.0,73632.0,7.57,0.01,-0.57,0,*61
1498629718.48,18935,19.0,73638.8,7.57,0.21,-0.45,0,*51
1498629719.69,18936,19.0,73652.8,7.55,-0.85,-2.19,0,*48
1498629720.88,18937,19.0,73672.0,7.55,-2.23,-4.05,0,*7C
1498629722.11,18938,19.0,73660.5,7.55,-2.87,-5.27,0,*7C
1498629723.33,18939,19.0,73662.0,7.55,-2.07,-4.25,0,*76
1498629724.52,18940,19.0,73666.3,7.55,-1.55,-3.75,0,*7E
1498629725.71,18941,19.0,73672.5,7.55,-1.59,-2.99,0,*70
1498629726.93,18942,19.0,73662.0,7.55,-2.11,-4.29,0,*71
1498629728.18,18943,19.0,73662.5,7.53,-2.39,-5.03,0,*75
1498629729.43,18944,19.0,73678.3,7.53,-2.11,-4.53,0,*7C
1498629730.67,18945,19.0,73688.0,7.51,-2.51,-4.93,0,*77
1498629731.89,18946,19.0,73704.3,7.53,-1.75,-4.17,0,*7F
1498629733.07,18947,19.0,73694.0,7.51,-1.63,-4.33,0,*7D
1498629734.29,18948,19.0,73694.3,7.51,-1.87,-4.65,0,*7B
1498629735.57,18949,19.0,73676.8,7.53,-1.87,-5.03,0,*79
1498629736.84,18950,19.0,73678.5,7.53,-2.11,-5.69,0,*71
1498629738.12,18951,19.0,73688.3,7.53,-1.99,-5.19,0,*74
1498629739.34,18952,19.0,73692.3,7.53,-1.55,-4.05,0,*7B
1498629740.56,18953,19.0,73700.3,7.53,-1.21,-3.83,0,*70
1498629741.8,18954,19.0,73704.0,7.57,-1.95,-3.91,0,*7F
1498629743.06,18955,19.0,73706.0,7.57,-2.03,-3.43,0,*7D
1498629744.27,18956,19.0,73708.5,7.55,-0.89,-1.75,0,*4B
1498629745.46,18957,19.0,73702.0,7.55,-0.37,-1.71,0,*4B
1498629746.7,18958,19.0,73702.8,7.57,0.41,-0.85,0,*50
1498629747.94,18959,19.0,73702.5,7.57,1.13,-0.57,0,*68
1498629749.15,18960,19.0,73708.5,7.59,1.55,-0.19,0,*64
1498629750.38,18961,19.0,73704.8,7.59,2.13,0.59,0,*4D
1498629751.6,18962,19.0,73702.3,7.59,2.17,0.79,0,*48
1498629752.8,18963,19.0,73716.0,7.61,2.61,0.97,0,*43
1498629754.02,18964,19.0,73704.5,7.61,2.73,0.97,0,*47
1498629755.26,18965,19.0,73694.3,7.61,2.51,0.95,0,*44
1498629756.52,18966,19.0,73688.5,7.61,2.25,0.59,0,*44
1498629757.73,18967,19.0,73692.0,7.61,1.79,-0.19,0,*66
1498629758.96,18968,19.0,73698.3,7.61,0.83,-1.55,0,*64
1498629760.16,18969,19.0,73688.3,7.61,-0.15,-2.79,0,*4A
1498629761.36,18970,19.0,73690.3,7.61,-0.61,-2.91,0,*47
1498629762.58,18971,19.0,73692.8,7.61,-0.15,-1.75,0,*4C
1498629763.8,18972,19.0,73694.0,7.61,0.47,-0.53,0,*50
1498629765.02,18973,19.0,73692.0,7.61,0.21,-0.69,0,*58
1498629766.26,18974,19.0,73690.8,7.61,0.33,-0.89,0,*52
1498629767.48,18975,19.0,73692.3,7.61,0.33,-0.29,0,*59
1498629768.73,18976,19.0,73700.3,7.61,1.71,1.43,0,*7D
1498629769.98,18977,19.0,73700.0,7.61,1.93,0.21,0,*45
1498629771.24,18978,19.0,73702.0,7.65,1.09,-1.13,0,*50
1498629772.46,18979,19.0,73710.5,7.65,0.75,-1.21,0,*6A
1498629773.69,18980,19.0,73706.8,7.65,0.25,-2.19,0,*61
1498629774.89,18981,19.0,73694.0,7.63,-0.57,-1.13,0,*47
1498629776.1,18982,19.0,73694.5,7.65,0.75,0.01,0,*40
1498629777.34,18983,19.0,73696.5,7.65,-1.09,-4.65,0,*7D
1498629778.57,18984,19.0,73704.3,7.63,-2.59,-6.63,0,*7E
1498629779.76,18985,19.0,73714.0,7.63,-2.35,-6.59,0,*7C
1498629780.97,18986,19.0,73718.8,7.63,-2.35,-7.01,0,*73
1498629782.18,18987,19.0,73716.3,7.63,-1.83,-6.77,0,*7C
1498629783.37,18988,19.0,73716.5,7.63,-1.21,-6.05,0,*7E
1498629784.58,18989,19.0,73714.5,7.63,-1.83,-6.51,0,*76
1498629785.82,18990,19.0,73720.8,7.63,-1.87,-6.23,0,*7F
1498629787.05,18991,19.0,73722.0,7.63,-2.59,-7.01,0,*7F
1498629788.29,18992,19.0,73724.5,7.63,-2.71,-7.27,0,*72
1498629789.52,18993,19.0,73716.0,7.65,-2.83,-7.39,0,*77
1498629790.77,18994,19.0,73714.5,7.65,-2.95,-7.43,0,*7A
1498629792.01,18995,19.0,73708.3,7.65,-2.95,-6.97,0,*73
1498629793.23,18996,19.0,73708.0,7.63,-3.15,-7.27,0,*75
1498629794.47,18997,19.0,73702.3,7.65,-2.95,-7.65,0,*7D
1498629795.71,18998,19.0,73696.3,7.65,-2.51,-5.51,0,*7F
1498629796.94,18999,19.0,73694.8,7.65,-0.27,-2.83,0,*45
1498629798.18,19000,19.0,73698.3,7.63,1.37,-1.95,0,*52
1498629799.4,19001,19.0,73702.0,7.63,2.69,-1.09,0,*5E
1498629800.62,19002,19.0,73702.3,7.63,3.15,-1.63,0,*5B
1498629801.81,19003,19.0,73700.5,7.63,3.71,0.01,0,*70
1498629803.02,19004,19.0,73700.8,7.63,4.11,1.37,0,*72
1498629804.24,19005,19.0,73712.0,7.63,4.31,2.21,0,*75
1498629805.46,19006,19.0,73712.0,7.63,4.01,1.93,0,*7F
1498629806.63,19007,19.0,73716.5,7.63,3.85,2.27,0,*79
1498629807.83,19008,19.0,73718.8,7.63,3.85,2.89,0,*72
1498629809.05,19009,19.0,73718.8,7.63,4.01,3.23,0,*79
1498629810.25,19010,19.0,73716.0,7.63,4.19,3.03,0,*7A
1498629811.46,19011,19.0,73716.0,7.63,4.23,3.03,0,*72
1498629812.65,19012,19.0,73718.5,7.63,4.45,3.53,0,*74
1498629813.87,19013,19.0,73722.0,7.63,4.79,3.71,0,*7A
1498629815.1,19014,19.0,73720.5,7.63,4.93,3.75,0,*7D
1498629816.31,19015,19.0,73726.5,7.63,4.93,3.93,0,*74
1498629817.48,19016,19.0,73720.3,7.63,4.89,4.23,0,*70
1498629818.69,19017,19.0,73720.0,7.63,5.01,4.57,0,*73
1498629819.91,19018,19.0,73714.3,7.63,5.27,5.01,0,*7A
1498629821.12,19019,19.0,73708.3,7.65,5.49,5.11,0,*74
1498629822.35,19020,19.0,73716.0,7.65,5.49,5.01,0,*7F
1498629823.55,19021,19.0,73726.0,7.65,5.37,4.53,0,*71
1498629824.78,19022,19.0,73722.8,7.65,5.01,4.23,0,*70
1498629825.98,19023,19.0,73726.0,7.65,5.11,4.33,0,*71
1498629827.21,19024,19.0,73728.5,7.65,5.15,5.01,0,*72
1498629828.42,19025,19.0,73716.5,7.63,5.11,4.93,0,*7B
1498629829.64,19026,19.0,73724.3,7.65,4.93,4.81,0,*76
1498629830.9,19027,19.0,73720.8,7.65,4.93,4.79,0,*70
1498629832.1,19028,19.0,73736.3,7.65,4.23,4.45,0,*7B
1498629833.31,19029,19.0,73732.5,7.67,4.27,4.67,0,*7C
1498629834.53,19030,19.0,73734.5,7.63,3.97,4.67,0,*7C
1498629835.71,19031,19.0,73732.0,7.67,3.89,4.45,0,*76
1498629836.97,19032,19.0,73700.5,7.65,3.23,3.49,0,*7C
1498629838.17,19033,19.0,73706.0,7.65,2.91,2.99,0,*79
1498629839.39,19034,19.0,73710.8,7.63,2.21,1.97,0,*7E
1498629840.59,19035,19.0,73710.8,7.65,1.75,1.01,0,*74
1498629841.83,19036,19.0,73708.5,7.65,1.67,0.71,0,*42
1498629843.07,19037,19.0,73714.8,7.65,0.75,0.29,0,*7C
1498629844.28,19038,19.0,73714.3,7.65,-0.03,0.17,0,*62
1498629845.52,19039,19.0,73718.3,7.65,-1.13,-1.75,0,*7B
1498629846.76,19040,19.0,73714.8,7.65,-1.13,-2.99,0,*74
1498629848.0,19041,19.0,73720.5,7.65,-2.39,-5.31,0,*7B
1498629849.24,19042,19.0,73716.3,7.65,-3.07,-5.85,0,*7B
1498629850.51,19043,19.0,73712.8,7.65,-3.59,-6.97,0,*71
1498629851.69,19044,19.0,73714.0,7.63,-3.11,-6.77,0,*72
1498629852.93,19045,19.0,73716.8,7.63,-2.63,-6.23,0,*76
1498629854.14,19046,19.0,73720.8,7.65,-2.19,-5.39,0,*76
1498629855.41,19047,19.0,73724.8,7.65,-1.99,-4.89,0,*76
1498629856.63,19048,19.0,73722.0,7.65,-2.87,-7.11,0,*77
1498629857.86,19049,19.0,73720.3,7.63,-3.51,-8.03,0,*76
1498629859.05,19050,19.0,73720.8,7.63,-3.75,-8.75,0,*79
1498629860.26,19051,19.0,73726.8,7.65,-4.05,-9.31,0,*7F
1498629861.47,19052,19.0,73730.5,7.63,-4.17,-9.41,0,*7E
1498629862.69,19053,19.0,73730.0,7.63,-4.05,-9.53,0,*7F
1498629863.9,19054,19.0,73726.0,7.63,-4.37,-9.83,0,*74
1498629865.11,19055,19.0,73720.8,7.65,-4.37,-9.89,0,*79
1498629866.35,19056,19.0,73720.5,7.65,-3.63,-8.85,0,*71
1498629867.61,19057,19.0,73726.8,7.65,-2.75,-7.91,0,*7C
1498629868.85,19058,19.0,73728.5,7.65,-0.73,-3.59,0,*47
1498629870.05,19059,19.0,73730.5,7.65,-0.11,-1.33,0,*4C
1498629871.23,19060,19.0,73726.0,7.63,-0.33,-2.35,0,*45
1498629872.42,19061,19.0,73728.5,7.63,-2.23,-4.61,0,*70
1498629873.69,19062,19.0,73726.0,7.65,-2.63,-5.81,0,*7E
1498629874.92,19063,19.0,73732.5,7.65,-3.23,-6.97,0,*7E
1498629876.16,19064,19.0,73742.8,7.65,-2.71,-6.59,0,*7D
1498629877.4,19065,19.0,73740.3,7.65,-3.51,-8.45,0,*7C
1498629878.64,19066,19.0,73728.3,7.65,-4.29,-9.45,0,*76
1498629879.85,19067,19.0,73730.3,7.65,-4.61,-9.97,0,*74
1498629881.1,19068,19.0,73718.8,7.65,-3.75,-7.91,0,*71
1498629882.31,19069,19.0,73712.0,7.65,-2.23,-6.59,0,*77
1498629883.55,19070,19.0,73704.8,7.65,-2.63,-6.89,0,*76
1498629884.77,19071,19.0,73720.8,7.65,-3.15,-6.59,0,*7A
1498629886.01,19072,19.0,73692.5,7.65,-4.29,-7.43,0,*7B
1498629887.25,19073,19.0,73682.8,7.65,-5.07,-8.59,0,*73
1498629888.46,19074,19.0,73648.0,7.67,-4.33,-7.05,0,*76
1498629889.67,19075,19.0,73662.8,7.71,-4.21,-7.05,0,*73
1498629890.86,19076,19.0,73664.0,7.67,-3.79,-6.35,0,*7F
1498629892.05,19077,19.0,73690.0,7.67,-2.31,-4.49,0,*7A
1498629893.26,19078,19.0,73674.3,7.67,-3.43,-7.49,0,*72
1498629894.45,19079,19.0,73654.5,7.67,-3.95,-8.21,0,*79
1498629895.66,19080,19.0,73696.8,7.67,-3.19,-6.97,0,*78
1498629896.93,19081,19.0,73670.0,7.65,-2.47,-5.93,0,*76
1498629898.17,19082,19.0,73670.3,7.65,-2.23,-5.31,0,*7F
1498629899.41,19083,19.0,73672.5,7.65,-3.11,-7.27,0,*7B
1498629900.65,19084,19.0,73682.0,7.63,-4.89,-9.53,0,*71
1498629901.87,19085,19.0,73686.3,7.63,-5.27,-10.35,0,*4D
1498629903.12,19086,19.0,73694.8,7.65,-5.27,-10.23,0,*4F
1498629904.34,19087,19.0,73688.3,7.63,-5.39,-10.67,0,*47
1498629905.57,19088,19.0,73686.5,7.63,-5.03,-10.15,0,*44
1498629906.79,19089,19.0,73690.8,7.61,-4.53,-10.15,0,*43
1498629908.02,19090,19.0,73690.5,7.63,-5.15,-10.35,0,*48
1498629909.26,19091,19.0,73698.3,7.61,-5.61,-10.89,0,*4F
1498629910.48,19092,19.0,73696.8,7.61,-5.43,-11.01,0,*4D
1498629911.73,19093,19.0,73698.8,7.61,-4.69,-10.97,0,*4B
1498629912.91,19094,19.0,73684.8,7.59,-4.45,-10.85,0,*4A
1498629914.13,19095,19.0,73694.8,7.61,-3.91,-9.89,0,*7A
1498629915.36,19096,19.0,73700.3,7.61,-4.29,-10.53,0,*42
1498629916.62,19097,19.0,73712.3,7.61,-4.85,-11.29,0,*49
1498629917.87,19098,19.0,73710.3,7.61,-5.07,-11.11,0,*46
1498629919.14,19099,19.0,73708.5,7.61,-5.11,-11.29,0,*4B
1498629920.41,19100,19.0,73708.5,7.61,-5.19,-11.59,0,*45
1498629921.63,19101,19.0,73716.5,7.61,-4.99,-10.97,0,*4E
1498629922.87,19102,19.0,73722.5,7.61,-4.41,-9.45,0,*7F
1498629924.12,19103,19.0,73728.8,7.61,-3.15,-7.73,0,*73
1498629925.36,19104,19.0,73734.3,7.61,-3.03,-7.01,0,*76
1498629926.6,19105,19.0,73734.5,7.61,-3.31,-7.73,0,*73
1498629927.81,19106,19.0,73730.8,7.63,-4.37,-8.51,0,*7C
1498629929.03,19107,19.0,73718.0,7.65,-3.75,-7.53,0,*77
1498629930.3,19108,19.0,73716.3,7.65,-3.59,-5.85,0,*7F
1498629931.51,19109,19.0,73716.5,7.63,-2.59,-3.75,0,*70
1498629932.75,19110,19.0,73732.5,7.65,-3.59,-5.51,0,*7F
1498629933.99,19111,19.0,73738.8,7.65,-4.61,-6.63,0,*70
1498629935.2,19112,19.0,73720.8,7.65,-4.17,-6.09,0,*7E
1498629936.42,19113,19.0,73720.8,7.65,-3.83,-5.43,0,*78
1498629937.65,19114,19.0,73702.8,7.67,-2.07,-3.43,0,*76
1498629938.87,19115,19.0,73696.8,7.67,-0.23,-0.93,0,*7D
1498629940.09,19116,19.0,73688.8,7.67,0.91,0.67,0,*7C
1498629941.31,19117,19.0,73706.8,7.67,0.55,0.51,0,*70
1498629942.48,19118,19.0,73718.0,7.67,-0.41,0.01,0,*62
1498629943.71,19119,19.0,73710.0,7.67,-1.09,-0.23,0,*43
1498629944.93,19120,19.0,73712.8,7.67,-0.97,0.29,0,*58
1498629946.15,19121,19.0,73712.5,7.67,-0.23,1.51,0,*68
1498629947.37,19122,19.0,73722.5,7.67,0.29,2.13,0,*49
1498629948.57,19123,19.0,73726.8,7.67,1.01,2.85,0,*7C
1498629949.78,19124,18.94,73730.8,7.71,1.29,2.99,0,*7B
1498629950.98,19125,19.0,73736.0,7.71,1.63,3.29,0,*7E
1498629952.2,19126,19.0,73738.0,7.67,2.21,3.79,0,*7A
1498629953.39,19127,19.0,73734.0,7.71,0.97,3.19,0,*45
1498629954.59,19128,19.0,73708.0,7.71,0.55,2.99,0,*4D
1498629955.78,19129,19.0,73690.3,7.71,0.55,2.99,0,*4C
1498629957.01,19130,19.0,73710.3,7.67,0.95,3.45,0,*4F
1498629958.18,19131,19.0,73690.5,7.67,1.01,3.25,0,*74
1498629959.41,19132,19.0,73676.3,7.65,0.91,2.99,0,*4B
1498629960.64,19133,19.0,73652.8,7.65,0.97,2.59,0,*40
1498629961.9,19134,19.0,73658.8,7.65,1.13,2.39,0,*7C
1498629963.16,19135,19.0,73642.8,7.65,1.21,2.09,0,*7F
1498629964.4,19136,19.0,73670.3,7.65,0.63,0.75,0,*72
1498629965.63,19137,19.0,73678.0,7.65,0.25,0.17,0,*75
1498629966.86,19138,19.0,73678.0,7.63,-1.09,-0.97,0,*4B
1498629968.1,19139,19.0,73686.5,7.65,-1.71,-1.43,0,*7B
1498629969.31,19140,19.0,73684.3,7.65,-1.63,-1.75,0,*73
1498629970.58,19141,19.0,73682.5,7.65,-2.11,-2.59,0,*79
1498629971.79,19142,19.0,73680.8,7.65,-2.83,-3.87,0,*73
1498629973.03,19143,19.0,73684.3,7.65,-3.39,-4.81,0,*73
1498629974.27,19144,19.0,73676.0,7.65,-4.05,-5.27,0,*71
1498629975.49,19145,19.0,73676.8,7.65,-4.41,-5.39,0,*7F
1498629976.67,19146,19.0,73680.8,7.63,-4.53,-6.31,0,*72
1498629977.86,19147,19.0,73686.8,7.63,-4.41,-7.23,0,*72
1498629979.09,19148,19.0,73694.8,7.65,-4.81,-8.59,0,*75
1498629980.34,19149,19.0,73690.0,7.65,-4.93,-9.15,0,*7E
1498629981.6,19150,19.0,73688.5,7.65,-4.81,-9.41,0,*74
1498629982.84,19151,19.0,73690.3,7.65,-4.89,-10.23,0,*41
1498629984.07,19152,19.0,73692.8,7.65,-4.69,-9.97,0,*7B
1498629985.25,19153,19.0,73690.5,7.67,-4.37,-9.67,0,*7C
1498629986.48,19154,19.0,73688.8,7.67,-3.83,-9.53,0,*74
1498629987.69,19155,19.0,73696.3,7.67,-3.71,-9.75,0,*7C
1498629988.93,19156,19.0,73702.0,7.67,-3.55,-9.83,0,*70
1498629990.14,19157,19.0,73716.8,7.67,-3.11,-9.83,0,*71
1498629991.33,19158,19.0,73696.8,7.67,-3.23,-11.01,0,*4C
1498629992.52,19159,19.0,73690.8,7.67,-4.33,-12.29,0,*42
1498629993.74,19160,19.0,73702.0,7.67,-3.71,-10.89,0,*41
1498629994.92,19161,19.0,73704.8,7.67,-2.83,-7.53,0,*7D
1498629996.12,19162,19.0,73710.3,7.71,-1.17,-4.53,0,*74
1498629997.3,19163,19.0,73708.5,7.71,-0.15,-4.53,0,*46
1498629998.51,19164,19.0,73712.3,7.67,-0.81,-5.15,0,*48
1498629999.7,19165,19.0,73712.3,7.67,-0.73,-5.55,0,*40
1498630000.94,19166,19.0,73714.3,7.67,-2.03,-7.35,0,*72
1498630002.13,19167,19.0,73712.8,7.71,-2.99,-8.17,0,*78
1498630003.32,19168,19.0,73712.0,7.71,-3.03,-7.83,0,*77
1498630004.55,19169,19.0,73712.8,7.71,-2.55,-6.63,0,*7B
1498630005.79,19170,19.0,73702.0,7.71,-1.91,-5.11,0,*7E
1498630007.03,19171,19.0,73696.0,7.71,-1.05,-4.85,0,*7E
1498630008.23,19172,19.0,73704.8,7.71,-0.57,-3.67,0,*40
1498630009.44,19173,19.0,73716.5,7.71,1.51,-0.49,0,*64
1498630010.65,19174,19.0,73716.3,7.71,3.49,1.43,0,*7E
1498630011.9,19175,19.0,73690.5,7.73,4.63,3.67,0,*76
1498630013.12,19176,19.0,73686.3,7.73,4.89,4.05,0,*72
1498630014.32,19177,19.0,73700.5,7.75,4.33,3.37,0,*72
1498630015.58,19178,19.0,73724.0,7.73,3.11,1.09,0,*73
1498630016.77,19179,19.0,73748.8,7.75,0.75,-2.23,0,*63
1498630017.98,19180,19.0,73742.3,7.73,-2.31,-7.19,0,*70
1498630019.21,19181,19.0,73710.8,7.73,-4.57,-10.15,0,*4D
1498630020.46,19182,19.0,73676.3,7.75,-5.07,-11.07,0,*4E
1498630021.68,19183,19.0,73660.5,7.71,-5.47,-11.67,0,*49
1498630022.87,19184,19.0,73640.3,7.71,-5.35,-11.15,0,*4E
1498630024.06,19185,19.0,73626.0,7.71,-4.99,-10.45,0,*4C
1498630025.26,19186,19.0,73624.0,7.71,-4.33,-10.27,0,*4B
1498630026.46,19187,19.0,73650.3,7.71,-3.67,-8.75,0,*72
1498630027.65,19188,19.0,73674.0,7.71,-2.19,-4.21,0,*78
1498630028.87,19189,19.0,73686.3,7.71,-3.03,-5.11,0,*71
1498630030.08,19190,19.0,73676.8,7.71,-4.29,-5.65,0,*75
1498630031.27,19191,19.0,73678.3,7.71,-4.61,-6.43,0,*7F
1498630032.5,19192,19.0,73686.8,7.71,-4.81,-7.57,0,*76
1498630033.71,19193,19.0,73688.3,7.67,-4.77,-8.89,0,*75
1498630034.91,19194,19.0,73690.3,7.71,-4.99,-9.37,0,*71
1498630036.1,19195,19.0,73696.3,7.71,-4.33,-9.23,0,*75
1498630037.29,19196,19.0,73700.5,7.71,-3.91,-8.67,0,*78
1498630038.49,19197,19.0,73712.5,7.67,-3.67,-8.55,0,*76
1498630039.7,19198,19.0,73724.5,7.71,-3.07,-7.31,0,*75
1498630040.91,19199,19.0,73720.3,7.71,-2.67,-6.39,0,*7A
1498630042.15,19200,19.0,73710.5,7.71,-2.75,-5.61,0,*74
1498630043.36,19201,19.0,73702.8,7.71,-2.55,-4.41,0,*74
1498630044.59,19202,19.0,73700.0,7.73,-1.91,-3.31,0,*7E
1498630045.77,19203,19.0,73698.5,7.75,-1.51,-3.11,0,*77
1498630047.04,19204,19.0,73696.5,7.73,-1.39,-2.75,0,*7B
1498630048.27,19205,19.0,73700.5,7.75,-0.97,-2.59,0,*47
1498630049.48,19206,19.0,73714.5,7.73,-0.41,-1.63,0,*43
1498630050.71,19207,19.0,73714.0,7.73,-0.69,-2.03,0,*4D
1498630051.93,19208,19.0,73726.3,7.75,-1.33,-2.63,0,*7C
1498630053.11,19209,19.0,73710.8,7.75,-1.25,-3.15,0,*7A
1498630054.32,19210,19.0,73698.0,7.75,-1.83,-4.41,0,*78
1498630055.54,19211,19.0,73694.3,7.75,-2.11,-5.55,0,*75
1498630056.81,19212,19.0,73702.3,7.77,-2.71,-6.63,0,*74
1498630058.05,19213,19.0,73718.8,7.77,-3.27,-7.91,0,*7B
1498630059.29,19214,19.0,73708.3,7.77,-3.51,-8.59,0,*76
1498630060.52,19215,19.0,73698.0,7.77,-4.29,-10.15,0,*4E
1498630061.78,19216,19.0,73708.5,7.77,-4.77,-10.71,0,*44
1498630063.0,19217,19.0,73696.5,7.75,-4.57,-10.79,0,*4D
1498630064.24,19218,18.94,73702.5,7.75,-5.03,-11.37,0,*49
1498630065.45,19219,19.0,73708.8,7.75,-4.69,-10.85,0,*4D
1498630066.66,19220,19.0,73712.8,7.75,-4.41,-10.71,0,*46
1498630067.87,19221,19.0,73716.8,7.75,-4.53,-10.71,0,*44
1498630069.06,19222,19.0,73714.8,7.75,-4.37,-10.49,0,*4E
1498630070.31,19223,19.0,73694.8,7.75,-5.07,-11.63,0,*44
1498630071.55,19224,19.0,73700.0,7.75,-5.27,-11.55,0,*44
1498630072.8,19225,19.0,73694.3,7.75,-5.07,-11.55,0,*47
1498630074.04,19226,19.0,73694.5,7.73,-5.11,-11.41,0,*40
1498630075.28,19227,19.0,73702.3,7.75,-5.07,-11.37,0,*41
1498630076.52,19228,19.0,73706.8,7.75,-5.03,-11.37,0,*4A
1498630077.73,19229,19.0,73710.8,7.75,-4.77,-11.23,0,*4C
1498630078.95,19230,19.0,73710.5,7.77,-4.57,-11.11,0,*45
1498630080.17,19231,19.0,73700.8,7.77,-4.17,-10.93,0,*4B
1498630081.39,19232,19.0,73702.3,7.77,-4.13,-10.85,0,*4B
1498630082.61,19233,19.0,73716.0,7.77,-3.87,-10.57,0,*4F
1498630083.85,19234,19.0,73720.0,7.77,-3.75,-10.35,0,*41
1498630085.07,19235,19.0,73712.0,7.77,-4.17,-9.97,0,*73
1498630086.31,19236,18.94,73708.3,7.77,-4.41,-9.41,0,*78
1498630087.52,19237,19.0,73712.8,7.77,-2.99,-6.85,0,*7D
1498630088.7,19238,19.0,73714.5,7.79,0.05,-1.67,0,*5D
1498630089.92,19239,18.94,73728.0,7.77,0.13,-1.21,0,*67
1498630091.13,19240,19.0,73726.3,7.77,-0.15,-1.75,0,*43
1498630092.4,19241,19.0,73728.3,7.77,-1.87,-5.81,0,*77
1498630093.63,19242,19.0,73730.3,7.79,-3.43,-7.05,0,*7E
1498630094.86,19243,19.0,73714.0,7.77,-1.33,-3.71,0,*73
1498630096.07,19244,18.94,73710.0,7.79,-1.17,-3.47,0,*79
1498630097.24,19245,19.0,73692.8,7.79,0.01,-4.25,0,*50
1498630098.44,19246,19.0,73696.5,7.79,-0.33,-4.77,0,*48
1498630099.62,19247,19.0,73706.0,7.79,-0.11,-2.43,0,*48
1498630100.85,19248,19.0,73724.0,7.79,0.29,-1.83,0,*6E
1498630102.05,19249,19.0,73716.0,7.81,0.21,-1.75,0,*69
1498630103.29,19250,19.0,73734.0,7.83,-1.87,-4.99,0,*74
1498630104.51,19251,19.0,73716.3,7.81,-4.17,-7.61,0,*7F
1498630105.75,19252,19.0,73690.0,7.81,-3.79,-5.23,0,*77
1498630106.96,19253,18.94,73682.8,7.81,-1.79,-2.75,0,*70
1498630108.18,19254,19.0,73688.3,7.81,-1.91,-4.05,0,*70
1498630109.37,19255,18.94,73692.5,7.81,-2.79,-6.89,0,*72
1498630110.57,19256,19.0,73696.5,7.81,-3.83,-9.05,0,*7E
1498630111.77,19257,19.0,73692.5,7.79,-4.65,-10.31,0,*48
1498630113.01,19258,19.0,73696.0,7.79,-4.89,-10.79,0,*49
1498630114.23,19259,18.94,73698.3,7.79,-4.89,-10.89,0,*47
1498630115.47,19260,19.0,73696.5,7.79,-5.03,-11.07,0,*49
1498630116.69,19261,19.0,73698.3,7.79,-5.11,-11.15,0,*48
1498630117.89,19262,18.94,73704.0,7.79,-4.77,-10.89,0,*4E
1498630119.12,19263,19.0,73718.0,7.79,-4.33,-10.63,0,*4B
1498630120.31,19264,18.94,73722.3,7.79,-4.13,-10.49,0,*46
1498630121.51,19265,19.0,73716.0,7.79,-4.21,-10.45,0,*4A
1498630122.72,19266,18.94,73714.3,7.79,-4.25,-10.35,0,*4A
1498630123.91,19267,19.0,73714.8,7.79,-4.45,-10.35,0,*4D
1498630125.11,19268,19.0,73722.3,7.79,-4.65,-10.35,0,*40
1498630126.29,19269,18.94,73720.5,7.81,-4.45,-9.75,0,*78